Powrót do katalogu

SUCHAI-4

AktywnyMilitariaSSO
NORAD 69936·PAYLOAD·🇺🇸 United States
Ta nazwa satelity nie została jeszcze potwierdzona przez oficjalne źródła.

Wystrzelony Jul 7, 2026 z Vandenberg Space Force Base

Loading…

Następne Przeloty (najbliższe 24 godziny)

TLE

ŚwieżeSource: Space-Track

Epoka: Sep 14, 2026, 11:05 UTC

1 69936U 26156BV  26257.46188657  .00001420  00000-0  14332-3 0  9993
2 69936  97.7401 156.7925 0008408 288.0459  71.9844 14.92618694 10312

Śledź SUCHAI-4 w czasie rzeczywistym z AllMySat

Download on the App Store